STARLINK-1074 (44957 NORAD) Tracking and Keplerian Element Data

This shows tracking and keplerian element data for the satellite.

Feedback or suggestion? Click here.




ElementValue
Catalog44957
NameSTARLINK-1074
Epoch Orbit728
Epoch Day53.25001157
Epoch Year2020
RAAN167.2066
Inclination52.9959
Eccentricity0.000151
Argument of Perigee22.9537
Mean Anonmoly102.0095
Mean Motion15.73162354
Decay Rate0.00326475
L11 44957U 20001AV 20053.25001157 .00326475 00000-0 22444-2 0 9998
L22 44957 52.9959 167.2066 0001510 22.9537 102.0095 15.73162354 7284

Live tracking and technical data element details for STARLINK-1074 (NORAD 44957). STARLINK-1074 can be tracked NOW for your location showing map with azimuth and elevation plus other details from your city location.

Track the satellite on the map from your city or location and see movement details for azimuth, elevation, latitude, longitude, range, height, and movement on the map or in text.







IsCatalogInMostPopularTable: catalog: 44957, numindb: 14
Update: records affected: 1



GetName: 44957 STARLINK-1074

Hit Count: updated at: Mon, 24 Feb 2020 17:50:30 GMT